カタログに戻る

SL-8 R/B

運用中LEO
NORAD 12328·ROCKET BODY·🇷🇺 Russia

打ち上げ Mar 6, 1981 から Plesetsk Cosmodrome

Loading…

次のパス (今後24時間)

TLE

最新Source: Space-Track

元期: Sep 14, 2026, 04:35 UTC

1 12328U 81022J   26257.19158050 -.00000039  00000-0 -21325-3 0  9990
2 12328  74.0249 180.2267 0150611 243.8131 270.8289 12.23771401 33815

AllMySatでSL-8 R/Bをリアルタイム追跡

Download on the App Store